This demonstration page uses our WeatherBlox Daily Observations layout. Learn more.

Left ArrowRight Arrow

39.01783, -85.05884

Hourly Observations for August 20, 2017

Temp ( °F °C ) Dew Point ( °F °C ) Humidity (%) Winds ( mph kmh ) Pressure ( in mb ) Visibility ( mi km ) Precip ( " mm )
12:52 am 00:52 Mostly Cloudy 72 22.2 69 20.6 91 91 SW 5 7 29.99 1016 10 16 0.00 0.00
1:52 am 01:52 Cloudy 73 22.8 71 21.7 94 94 Calm 29.99 1016 10 16 0.00 0.00
2:52 am 02:52 Cloudy 72 22.2 71 21.7 97 97 Calm 29.99 1016 10 16 0.00 0.00
3:52 am 03:52 Mostly Cloudy 73 22.8 70 21.1 90 90 NNE 3 6 29.99 1016 10 16 0.00 0.00
4:52 am 04:52 Partly Cloudy 71 21.7 69 20.6 94 94 SE 7 11 30.00 1016 9 14 0.00 0.00
5:52 am 05:52 Clear 70 21.1 68 20 93 93 SSE 6 9 30.01 1016 9 14 0.00 0.00
6:52 am 06:52 Mostly Clear 71 21.7 68 20 90 90 Calm 30.02 1017 10 16 0.00 0.00
7:52 am 07:52 Sunny 70 21.1 70 21.1 100 100 Calm 30.03 1017 7 11 0.00 0.00
8:52 am 08:52 Sunny 74 23.3 70 21.1 88 88 SSW 3 6 30.06 1018 8 13 0.00 0.00
9:52 am 09:52 Sunny 78 25.6 71 21.7 79 79 S 7 11 30.06 1018 9 14 0.00 0.00
10:52 am 10:52 Mostly Sunny 82 27.8 72 22.2 72 72 SSW 3 6 30.06 1018 9 14 0.00 0.00
11:52 am 11:52 Mostly Sunny 84 28.9 70 21.1 63 63 SSW 8 13 30.08 1019 10 16 0.00 0.00
12:52 pm 12:52 Partly Cloudy 86 30 71 21.7 61 61 SSW 12 19 30.07 1018 10 16 0.00 0.00
1:52 pm 13:52 Partly Cloudy 86 30 68 20 55 55 SW 6 9 30.06 1018 10 16 0.00 0.00
2:52 pm 14:52 Partly Cloudy 89 31.7 68 20 50 50 WSW 8 13 30.05 1018 10 16 0.00 0.00
3:52 pm 15:52 Mostly Cloudy 86 30 67 19.4 53 53 SSW 7 11 30.03 1017 10 16 0.00 0.00
4:52 pm 16:52 Mostly Cloudy 87 30.6 69 20.6 55 55 SSW 7 11 30.02 1017 10 16 0.00 0.00
5:52 pm 17:52 Mostly Sunny 87 30.6 69 20.6 55 55 S 10 17 30.03 1017 10 16 0.00 0.00
6:52 pm 18:52 Mostly Cloudy 86 30 68 20 55 55 SW 3 6 30.04 1017 10 16 0.00 0.00
7:52 pm 19:52 Mostly Cloudy 79 26.1 72 22.2 79 79 S 3 6 30.06 1018 10 16 0.00 0.00
8:52 pm 20:52 Cloudy 78 25.6 70 21.1 76 76 S 3 6 30.06 1018 10 16 0.00 0.00
9:52 pm 21:52 Mostly Cloudy 78 25.6 68 20 71 71 Calm 30.06 1018 10 16 0.00 0.00
10:52 pm 22:52 Mostly Cloudy 75 23.9 68 20 79 79 SSE 5 7 30.07 1018 10 16 0.00 0.00
11:52 pm 23:52 Mostly Clear 76 24.4 69 20.6 79 79 S 5 7 30.08 1019 10 16 0.00 0.00

Powered by AerisWeather